SCP
-1 -0 -0 -0 0 -0 -0 -0 -0 -0 0 0 0 0 0 0 0 0 0 0 0 0
-0 -0 -0 -0 -0 -0 0 -0 -0 -0 -0 -0 0 0 0 0 0 0 0 0 0 0
-0 -0 -0 -0 -0 -0 -0 0 -0 -0 -0 0 0 0 0 0 0 1 0 0 0 0
-0 -0 -0 -0 -0 -0 -0 -0 -0 -0 -0 -0 -0 0 0 0 0 0 0 0 0 0
-0 -0 -0 -0 -0 -0 -0 -0 -0 -0 -0 -0 -0 -0 -0 0 0 0 0 0 0 0
-0 -0 -0 -0 -0 -0 -0 -0 -0 -0 -0 -0 -0 -0 -0 0 0 0 0 0 0 0
0 0 -0 -0 -0 -0 -1 -1 -1 -1 -1 -1 -0 0 0 0 0 0 0 0 0 0
1 0 0 -0 0 -0 -0 -1 -0 -0 -0 -0 0 0 1 1 1 1 1 1 1 0
2 1 1 0 0 1 1 0 0 0 0 1 0 0 1 1 2 2 2 2 2 1
2 0 1 1 1 1 1 2 2 2 2 2 1 1 1 1 2 2 3 3 4 2
0 -1 0 1 1 1 1 2 3 3 3 4 4 4 1 1 3 4 3 6 3 1
1 1 1 1 2 2 2 2 2 3 4 4 5 5 2 1 5 7 3 1 0 0
2 1 1 1 1 3 3 3 2 2 3 5 6 4 0 1 7 3 1 1 0 0
1 1 1 1 2 2 4 5 5 5 5 4 4 3 0 0 4 1 1 0 0 0
Wind_Speed_500mb
50 44 39 36 33 24 28 29 27 28 30 26 28 26 23 15 15 17 13 14 16 11
48 45 41 41 39 31 28 26 31 34 32 33 36 31 29 24 19 19 19 17 20 19
49 46 48 44 48 41 32 35 29 34 36 38 39 37 37 27 27 27 23 21 25 21
45 45 48 44 47 47 42 39 37 37 37 38 40 40 41 39 29 36 31 31 30 27
42 43 45 48 44 44 46 49 44 44 37 40 41 45 45 41 37 37 36 35 33 30
41 44 46 46 49 46 49 51 45 48 48 45 43 43 44 43 42 40 39 36 33 31
39 40 42 44 46 49 53 53 56 54 53 53 49 47 46 45 49 47 44 40 35 31
26 35 41 45 48 49 56 57 59 60 59 59 56 52 56 55 53 49 49 45 43 39
18 36 40 48 59 58 61 60 64 64 64 65 59 57 65 61 56 56 53 54 52 43
17 40 45 44 49 53 58 58 61 68 69 70 72 67 67 71 60 54 58 56 54 56
28 61 34 33 43 51 51 55 60 63 69 70 74 75 73 75 77 68 63 67 67 70
22 9 14 20 25 34 41 48 51 59 63 68 68 68 71 72 81 84 89 82 82 75
7 7 6 7 12 17 26 37 37 48 55 59 62 66 73 73 76 97 102 89 93 85
13 10 9 14 21 28 23 30 43 49 51 53 59 69 65 68 76 85 87 94 97 93
Wind_Direction_500mb
230 223 225 227 223 222 224 219 219 214 225 195 226 224 220 201 209 231 221 228 239 236
232 224 218 216 230 219 226 222 208 210 209 210 208 215 219 199 225 215 226 228 233 237
224 228 216 217 214 216 221 219 225 215 212 206 206 213 210 215 216 220 221 224 236 243
215 217 221 213 220 217 214 222 209 224 213 213 213 215 221 208 225 237 224 220 231 251
214 213 216 215 216 219 217 221 225 220 219 219 222 222 223 226 222 232 232 232 236 249
220 216 215 220 214 219 227 225 227 228 228 227 224 227 230 228 230 226 236 231 238 246
221 223 222 222 226 217 228 234 235 239 239 237 230 227 225 230 229 221 229 230 230 240
237 233 230 224 227 230 222 234 238 237 240 242 235 226 228 227 229 228 221 226 231 234
269 253 236 236 225 228 235 232 234 238 237 239 232 235 234 238 233 237 231 224 226 218
297 266 253 242 241 237 235 234 236 239 241 240 244 234 236 241 231 230 231 231 220 225
231 268 262 254 243 244 240 240 241 242 243 244 244 245 239 236 240 234 232 227 229 230
198 246 267 266 271 259 248 242 243 246 249 246 247 244 244 240 236 231 233 231 238 243
190 225 260 316 311 289 264 269 255 249 248 251 253 250 245 243 239 234 232 235 248 248
214 250 289 316 322 321 304 274 260 255 252 252 254 252 251 249 244 247 241 246 243 240
Wind_Speed_850mb
50 44 39 36 33 24 28 29 27 28 30 26 28 26 23 15 15 17 13 14 16 11
48 45 41 41 39 31 28 26 31 34 32 33 36 31 29 24 19 19 19 17 20 19
49 46 48 44 48 41 32 35 29 34 36 38 39 37 37 27 27 27 23 21 25 21
45 45 48 44 47 47 42 39 37 37 37 38 40 40 41 39 29 36 31 31 30 27
42 43 45 48 44 44 46 49 44 44 37 40 41 45 45 41 37 37 36 35 33 30
41 44 46 46 49 46 49 51 45 48 48 45 43 43 44 43 42 40 39 36 33 31
39 40 42 44 46 49 53 53 56 54 53 53 49 47 46 45 49 47 44 40 35 31
26 35 41 45 48 49 56 57 59 60 59 59 56 52 56 55 53 49 49 45 43 39
18 36 40 48 59 58 61 60 64 64 64 65 59 57 65 61 56 56 53 54 52 43
17 40 45 44 49 53 58 58 61 68 69 70 72 67 67 71 60 54 58 56 54 56
28 61 34 33 43 51 51 55 60 63 69 70 74 75 73 75 77 68 63 67 67 70
22 9 14 20 25 34 41 48 51 59 63 68 68 68 71 72 81 84 89 82 82 75
7 7 6 7 12 17 26 37 37 48 55 59 62 66 73 73 76 97 102 89 93 85
13 10 9 14 21 28 23 30 43 49 51 53 59 69 65 68 76 85 87 94 97 93
Wind_Direction_850mb
230 223 225 227 223 222 224 219 219 214 225 195 226 224 220 201 209 231 221 228 239 236
232 224 218 216 230 219 226 222 208 210 209 210 208 215 219 199 225 215 226 228 233 237
224 228 216 217 214 216 221 219 225 215 212 206 206 213 210 215 216 220 221 224 236 243
215 217 221 213 220 217 214 222 209 224 213 213 213 215 221 208 225 237 224 220 231 251
214 213 216 215 216 219 217 221 225 220 219 219 222 222 223 226 222 232 232 232 236 249
220 216 215 220 214 219 227 225 227 228 228 227 224 227 230 228 230 226 236 231 238 246
221 223 222 222 226 217 228 234 235 239 239 237 230 227 225 230 229 221 229 230 230 240
237 233 230 224 227 230 222 234 238 237 240 242 235 226 228 227 229 228 221 226 231 234
269 253 236 236 225 228 235 232 234 238 237 239 232 235 234 238 233 237 231 224 226 218
297 266 253 242 241 237 235 234 236 239 241 240 244 234 236 241 231 230 231 231 220 225
231 268 262 254 243 244 240 240 241 242 243 244 244 245 239 236 240 234 232 227 229 230
198 246 267 266 271 259 248 242 243 246 249 246 247 244 244 240 236 231 233 231 238 243
190 225 260 316 311 289 264 269 255 249 248 251 253 250 245 243 239 234 232 235 248 248
214 250 289 316 322 321 304 274 260 255 252 252 254 252 251 249 244 247 241 246 243 240